Location: Unspecified
(52.4292°N, 19.3359°E)
Time: 00:43:52
(UTC+02:00)

A-11 Canister half - Pass Details

Date: 22 May 2024
Orbit: 1515 x 1685 km, 47.2° (Epoch: 19 June)

Event Time Altitude Azimuth Distance (km) Brightness Sun altitude
Rises 05:11:37 0° 254° (WSW) 4,730 10.9 3.7°
Reaches altitude 10° 05:14:44 10° 252° (WSW) 3,728 10.4 4.1°
Maximum altitude 05:23:56 64° 174° (S) 1,664 9.3 5.3°
Drops below altitude 10° 05:32:59 10° 96° (E) 3,676 12.2 6.5°
Sets 05:36:02 0° 93° (E) 4,661 12.8 7.0°
